Location: Newark
(37.8333°N, 119.5000°W)
Time: 22:12:44
(UTC+00:00)

Tiros 1 despin weight - Pass Details

Date: 24 August 2019
Orbit: 595 x 642 km, 48.2° (Epoch: 15 September)

Event Time Altitude Azimuth Distance (km) Brightness Sun altitude
Rises 14:01:39 0° 291° (WNW) 2,895 ? 7.0°
Reaches altitude 10° 14:04:26 10° 275° (W) 1,995 ? 7.5°
Maximum altitude 14:07:48 20° 227° (SW) 1,437 ? 8.2°
Drops below altitude 10° 14:11:12 10° 180° (S) 2,006 ? 8.9°
Sets 14:14:01 0° 163° (SSE) 2,916 ? 9.4°
